CW4223 Weather Reports


Display with metric or nautical units.
time (UTC)temp
F
wind
direction
speed
MPH
gust
MPH
rain 1hr
in
rain 24hr
in
rain mn
in
humidity
%
barometer
mb
20210929014804 81 86 0.0 0.0 0.00 0.00 0.00 66 1009.1
20210929013304 81 84 0.0 0.0 0.00 0.00 0.00 65 1008.8
20210929012804 80 82 0.0 0.0 0.00 0.00 0.00 67 1008.6
20210929011804 81 82 0.0 0.0 0.00 0.00 0.00 66 1008.3
20210929011303 81 82 0.0 0.0 0.00 0.00 0.00 66 1008.2
20210929010803 82 82 1.0 3.0 0.00 0.00 0.00 63 1008.2
20210929010304 82 177 1.0 2.0 0.00 0.00 0.00 62 1008.2
20210929005803 83 163 1.0 2.0 0.00 0.00 0.00 61 1008.2
20210929005305 83 180 1.0 2.0 0.00 0.00 0.00 60 1008.2
20210929004804 83 187 1.0 2.0 0.00 0.00 0.00 59 1008.2
20210929004304 83 187 0.0 1.0 0.00 0.00 0.00 59 1008.3
20210929003804 83 187 0.0 1.0 0.00 0.00 0.00 58 1007.9
20210929003304 84 187 0.0 0.0 0.00 0.00 0.00 57 1007.9
20210929002804 84 187 1.0 2.0 0.00 0.00 0.00 56 1007.9
20210929001804 85 165 1.0 2.0 0.00 0.00 0.00 54 1008.0
20210929001303 85 177 1.0 2.0 0.00 0.00 0.00 54 1008.0
20210929000804 85 207 1.0 2.0 0.00 0.00 0.00 53 1008.2
20210929000304 85 209 1.0 2.0 0.00 0.00 0.00 53 1008.2
20210928235804 85 195 1.0 3.0 0.00 0.00 0.00 52 1007.9
20210928235306 85 194 3.0 5.0 0.00 0.00 0.00 52 1007.9
20210928234804 86 191 3.0 5.0 0.00 0.00 0.00 51 1007.8
20210928233304 86 161 4.0 6.0 0.00 0.00 0.00 51 1007.2
20210928232804 86 155 5.0 7.0 0.00 0.00 0.00 51 1007.0
20210928232306 86 150 5.0 6.0 0.00 0.00 0.00 51 1007.0
20210928231803 86 146 4.0 7.0 0.00 0.00 0.00 50 1007.3
20210928230304 87 149 4.0 8.0 0.00 0.00 0.00 49 1007.3
20210928225804 87 163 4.0 6.0 0.00 0.00 0.00 49 1007.3
20210928225306 87 160 2.0 6.0 0.00 0.00 0.00 49 1007.3
20210928224804 87 156 5.0 8.0 0.00 0.00 0.00 48 1006.9
20210928224304 88 155 5.0 10.0 0.00 0.00 0.00 48 1006.9
20210928223304 88 155 6.0 10.0 0.00 0.00 0.00 46 1006.9
20210928222305 88 161 7.0 9.0 0.00 0.00 0.00 48 1006.8
20210928221803 88 169 5.0 10.0 0.00 0.00 0.00 49 1006.9
20210928221304 88 150 7.0 12.0 0.00 0.00 0.00 48 1007.1
20210928220803 88 165 5.0 10.0 0.00 0.00 0.00 49 1007.1
20210928220304 88 160 6.0 10.0 0.00 0.00 0.00 49 1007.1
20210928215804 88 164 7.0 12.0 0.00 0.00 0.00 49 1007.3
20210928215305 89 175 7.0 12.0 0.00 0.00 0.00 49 1007.3
20210928213304 89 168 7.0 10.0 0.00 0.00 0.00 47 1007.7
20210928212804 89 160 7.0 12.0 0.00 0.00 0.00 47 1007.7
20210928212306 89 178 7.0 10.0 0.00 0.00 0.00 46 1007.9
20210928211804 90 170 7.0 12.0 0.00 0.00 0.00 46 1007.8
20210928211304 90 166 6.0 12.0 0.00 0.00 0.00 46 1007.8
20210928210804 90 172 7.0 12.0 0.00 0.00 0.00 44 1007.8
20210928205805 90 180 7.0 13.0 0.00 0.00 0.00 44 1007.8
20210928205305 90 177 8.0 12.0 0.00 0.00 0.00 45 1007.9
20210928204804 91 183 9.0 13.0 0.00 0.00 0.00 46 1007.9
20210928204304 91 165 9.0 15.0 0.00 0.00 0.00 45 1007.9
20210928203804 91 168 7.0 14.0 0.00 0.00 0.00 45 1007.9
20210928203304 91 179 8.0 12.0 0.00 0.00 0.00 44 1007.9
20210928202804 90 187 9.0 17.0 0.00 0.00 0.00 44 1008.0
20210928202306 91 167 9.0 15.0 0.00 0.00 0.00 43 1008.0
20210928200804 91 160 7.0 13.0 0.00 0.00 0.00 45 1008.5
20210928200304 91 179 8.0 13.0 0.00 0.00 0.00 45 1008.5
20210928195804 90 157 8.0 12.0 0.00 0.00 0.00 49 1008.5
20210928194804 90 162 9.0 15.0 0.00 0.00 0.00 45 1008.5
20210928193804 90 174 7.0 12.0 0.00 0.00 0.00 48 1009.0
20210928193304 89 154 7.0 12.0 0.00 0.00 0.00 51 1009.0
20210928192804 89 176 8.0 14.0 0.00 0.00 0.00 51 1009.1
20210928192306 89 190 7.0 14.0 0.00 0.00 0.00 52 1009.2
20210928191804 89 193 8.0 12.0 0.00 0.00 0.00 50 1009.5
20210928191304 89 192 9.0 12.0 0.00 0.00 0.00 50 1009.5
20210928190304 89 155 8.0 12.0 0.00 0.00 0.00 52 1009.9
20210928185804 88 181 10.0 15.0 0.00 0.00 0.00 52 1010.1
20210928184304 87 177 7.0 13.0 0.00 0.00 0.00 55 1010.5
20210928183803 86 177 7.0 12.0 0.00 0.00 0.00 57 1010.9
20210928182803 85 162 7.0 12.0 0.00 0.00 0.00 57 1011.1
20210928181803 85 167 8.0 12.0 0.00 0.00 0.00 58 1011.2
20210928181304 86 157 8.0 12.0 0.00 0.00 0.00 56 1011.3
20210928175803 85 177 6.0 12.0 0.00 0.00 0.00 60 1011.6
20210928174304 83 160 7.0 10.0 0.00 0.00 0.00 63 1011.8
20210928173804 83 155 6.0 12.0 0.00 0.00 0.00 63 1012.0
20210928172804 83 146 7.0 10.0 0.00 0.00 0.00 63 1012.1
20210928172305 83 154 8.0 12.0 0.00 0.00 0.00 62 1012.1
20210928171304 85 161 7.0 12.0 0.00 0.00 0.00 60 1012.2
20210928170804 85 185 6.0 12.0 0.00 0.00 0.00 60 1012.2
20210928170304 84 198 6.0 12.0 0.00 0.00 0.00 60 1012.2
20210928165804 85 198 6.0 12.0 0.00 0.00 0.00 60 1012.2
20210928164804 85 155 6.0 12.0 0.00 0.00 0.00 59 1012.2
20210928164304 84 150 5.0 9.0 0.00 0.00 0.00 61 1012.2
20210928163804 83 153 5.0 8.0 0.00 0.00 0.00 64 1012.2
20210928162803 81 156 5.0 9.0 0.00 0.00 0.00 65 1012.2
20210928162305 81 149 5.0 9.0 0.00 0.00 0.00 66 1012.2
20210928161804 81 130 5.0 7.0 0.00 0.00 0.00 67 1012.2
20210928161303 81 164 5.0 9.0 0.00 0.00 0.00 65 1012.2
20210928160804 81 162 5.0 9.0 0.00 0.00 0.00 66 1012.2
20210928160303 81 181 5.0 9.0 0.00 0.00 0.00 67 1012.2
20210928155804 80 123 5.0 8.0 0.00 0.00 0.00 67 1012.1
20210928154804 79 170 4.0 8.0 0.00 0.00 0.00 68 1012.1
20210928154303 79 171 4.0 6.0 0.00 0.00 0.00 71 1012.1
20210928153304 78 140 4.0 7.0 0.00 0.00 0.00 72 1011.9
20210928152803 78 163 3.0 6.0 0.00 0.00 0.00 74 1011.9
20210928152305 76 169 3.0 6.0 0.00 0.00 0.00 74 1011.9
20210928151304 76 188 3.0 5.0 0.00 0.00 0.00 73 1011.5
20210928150304 77 185 5.0 6.0 0.00 0.00 0.00 71 1011.5
20210928145305 76 187 5.0 8.0 0.00 0.00 0.00 73 1011.5
20210928144804 76 190 5.0 7.0 0.00 0.00 0.00 73 1011.5
20210928144304 75 164 2.0 5.0 0.00 0.00 0.00 77 1011.6
20210928143304 75 218 5.0 7.0 0.00 0.00 0.00 74 1011.6
20210928142804 75 226 3.0 8.0 0.00 0.00 0.00 75 1011.6
20210928142305 75 171 3.0 6.0 0.00 0.00 0.00 77 1011.5
20210928141304 74 153 5.0 7.0 0.00 0.00 0.00 79 1011.6
20210928140804 74 155 5.0 8.0 0.00 0.00 0.00 81 1011.7
20210928140304 74 189 5.0 9.0 0.00 0.00 0.00 82 1011.7
20210928134804 72 178 5.0 6.0 0.00 0.00 0.00 84 1011.6
20210928134304 72 164 4.0 7.0 0.00 0.00 0.00 84 1011.6
20210928133804 72 186 3.0 6.0 0.00 0.00 0.00 84 1011.7
20210928133303 71 175 3.0 6.0 0.00 0.00 0.00 85 1011.7
20210928132804 71 175 4.0 6.0 0.00 0.00 0.00 84 1011.7
20210928132306 71 173 3.0 5.0 0.00 0.00 0.00 84 1011.7
20210928131304 71 173 2.0 3.0 0.00 0.00 0.00 84 1011.8
20210928130303 69 193 1.0 3.0 0.00 0.00 0.00 85 1011.8
20210928125803 69 187 1.0 3.0 0.00 0.00 0.00 85 1011.6
20210928124304 68 174 1.0 2.0 0.00 0.00 0.00 85 1011.6
20210928123804 68 184 1.0 3.0 0.00 0.00 0.00 85 1011.6
20210928123304 68 190 1.0 2.0 0.00 0.00 0.00 85 1011.6
20210928122804 68 181 1.0 2.0 0.00 0.00 0.00 85 1011.7
20210928122306 68 178 1.0 2.0 0.00 0.00 0.00 85 1011.6
20210928121304 68 174 1.0 2.0 0.00 0.00 0.00 85 1011.7
20210928120304 68 179 1.0 3.0 0.00 0.00 0.00 84 1011.8
20210928115804 68 170 2.0 5.0 0.00 0.00 0.00 84 1011.7
20210928114804 68 170 1.0 3.0 0.00 0.00 0.00 84 1011.8
20210928113804 68 165 0.0 1.0 0.00 0.00 0.00 82 1011.9
20210928113303 69 165 1.0 3.0 0.00 0.00 0.00 81 1011.9
20210928112804 69 191 1.0 3.0 0.00 0.00 0.00 81 1011.8
20210928111304 69 178 2.0 5.0 0.00 0.00 0.00 81 1011.9
20210928110804 69 181 1.0 3.0 0.00 0.00 0.00 81 1011.8
20210928110303 68 182 2.0 3.0 0.00 0.00 0.00 82 1011.8
20210928105804 68 177 2.0 3.0 0.00 0.00 0.00 82 1011.8
20210928105306 68 170 1.0 2.0 0.00 0.00 0.00 83 1011.8
20210928104803 68 167 1.0 1.0 0.00 0.00 0.00 82 1011.8
20210928104304 68 167 0.0 1.0 0.00 0.00 0.00 83 1011.8
20210928103804 67 163 0.0 0.0 0.00 0.00 0.00 84 1011.8
20210928102306 67 163 0.0 0.0 0.00 0.00 0.00 84 1011.8
20210928101304 67 163 0.0 0.0 0.00 0.00 0.00 84 1011.8
20210928100804 67 163 0.0 0.0 0.00 0.00 0.00 84 1011.8
20210928100304 66 163 0.0 0.0 0.00 0.00 0.00 84 1011.8
20210928094804 67 163 0.0 0.0 0.00 0.00 0.00 82 1011.7
20210928093304 68 163 0.0 1.0 0.00 0.00 0.00 81 1011.6
20210928092804 68 159 0.0 1.0 0.00 0.00 0.00 82 1011.6
20210928091804 67 176 0.0 2.0 0.00 0.00 0.00 84 1011.6
20210928090304 67 181 1.0 2.0 0.00 0.00 0.00 84 1011.7
20210928085804 66 134 0.0 1.0 0.00 0.00 0.00 86 1011.6
20210928085305 65 134 0.0 0.0 0.00 0.00 0.00 88 1011.6
20210928084304 65 134 0.0 0.0 0.00 0.00 0.00 88 1011.6
20210928083304 66 134 0.0 0.0 0.00 0.00 0.00 87 1011.8
20210928082306 66 134 0.0 1.0 0.00 0.00 0.00 86 1011.9
20210928081803 66 134 0.0 0.0 0.00 0.00 0.00 88 1011.9
20210928081303 65 134 0.0 0.0 0.00 0.00 0.00 89 1011.9
20210928080803 65 134 0.0 0.0 0.00 0.00 0.00 88 1011.9
20210928075305 65 134 0.0 0.0 0.00 0.00 0.00 89 1012.0
20210928074803 64 134 0.0 0.0 0.00 0.00 0.00 89 1012.1
20210928074304 64 134 0.0 0.0 0.00 0.00 0.00 88 1012.0
20210928073803 65 134 0.0 0.0 0.00 0.00 0.00 87 1012.1
20210928073303 65 134 0.0 0.0 0.00 0.00 0.00 86 1012.1
20210928072803 65 134 0.0 0.0 0.00 0.00 0.00 88 1012.2
20210928072306 65 134 0.0 0.0 0.00 0.00 0.00 88 1012.2
20210928071803 65 134 0.0 0.0 0.00 0.00 0.00 88 1012.2
20210928070803 66 134 0.0 0.0 0.00 0.00 0.00 85 1012.2
20210928070303 67 134 0.0 0.0 0.00 0.00 0.00 85 1012.2
20210928065804 67 134 0.0 0.0 0.00 0.00 0.00 84 1012.2
20210928064803 67 134 0.0 0.0 0.00 0.00 0.00 83 1012.2
20210928063803 67 134 0.0 0.0 0.00 0.00 0.00 85 1012.3
20210928063303 66 134 0.0 0.0 0.00 0.00 0.00 86 1012.3
20210928062803 66 134 0.0 0.0 0.00 0.00 0.00 85 1012.4
20210928062306 66 134 0.0 0.0 0.00 0.00 0.00 85 1012.4
20210928061804 66 134 0.0 0.0 0.00 0.00 0.00 84 1012.4
20210928060804 67 134 0.0 0.0 0.00 0.00 0.00 83 1012.5
20210928060304 68 134 0.0 0.0 0.00 0.00 0.00 82 1012.5
20210928055305 69 134 0.0 0.0 0.00 0.00 0.00 81 1012.5
20210928054804 68 134 0.0 0.0 0.00 0.00 0.00 81 1012.5
20210928053304 70 0 0.0 0.0 0.00 0.00 0.00 78 1012.5
20210928052804 70 0 0.0 0.0 0.00 0.00 0.00 78 1012.5
20210928052305 70 0 0.0 0.0 0.00 0.00 0.00 78 1012.5
20210928051304 70 0 0.0 0.0 0.00 0.00 0.00 78 1012.3
20210928050836 70 0 0.0 0.0 0.00 0.00 0.00 78 1012.3
20210928050303 70 6 0.0 0.0 0.00 0.00 0.00 78 1012.3
20210928045803 70 132 0.0 0.0 0.00 0.00 0.00 78 1012.3
20210928045306 70 132 0.0 0.0 0.00 0.00 0.00 78 1012.3
20210928044804 70 132 0.0 0.0 0.00 0.00 0.00 78 1012.3
20210928044304 70 132 0.0 0.0 0.00 0.00 0.00 77 1012.4
20210928043804 70 132 0.0 0.0 0.00 0.00 0.00 77 1012.4
20210928042804 70 132 0.0 1.0 0.00 0.00 0.00 77 1012.3
20210928042305 70 98 0.0 0.0 0.00 0.00 0.00 78 1012.3
20210928041804 69 98 0.0 0.0 0.00 0.00 0.00 78 1012.3
20210928041304 70 98 0.0 0.0 0.00 0.00 0.00 78 1012.3
20210928034803 71 98 0.0 0.0 0.00 0.00 0.00 76 1012.2
20210928034304 71 98 0.0 0.0 0.00 0.00 0.00 75 1012.2
20210928033804 71 98 0.0 1.0 0.00 0.00 0.00 75 1012.2
20210928033304 71 98 0.0 0.0 0.00 0.00 0.00 75 1012.2
20210928032804 71 98 0.0 0.0 0.00 0.00 0.00 75 1012.2
20210928031304 72 98 2.0 3.0 0.00 0.00 0.00 72 1012.3
20210928030804 72 106 1.0 2.0 0.00 0.00 0.00 72 1012.3
20210928030304 72 126 1.0 3.0 0.00 0.00 0.00 71 1012.3
20210928025804 72 196 0.0 0.0 0.00 0.00 0.00 71 1012.3
20210928025306 72 196 1.0 2.0 0.00 0.00 0.00 71 1012.3
20210928024804 72 113 0.0 0.0 0.00 0.00 0.00 71 1012.3
20210928024304 72 113 0.0 0.0 0.00 0.00 0.00 70 1012.2
20210928023304 72 113 0.0 1.0 0.00 0.00 0.00 70 1012.2
20210928022306 72 101 1.0 2.0 0.00 0.00 0.00 71 1012.3
20210928021803 72 98 0.0 0.0 0.00 0.00 0.00 71 1012.1
20210928020304 73 98 0.0 0.0 0.00 0.00 0.00 72 1011.9